Content
SEND FEEDBACK

Daily
Averages
Monthly
Summary
United States of America

MANY, LOUISIANA


Home > North America > United States > Louisiana
Elevation: 243 feet     Latitude: 31 34N     Longitude: 093 29W

WEATHER
 
SELECT A DAY
Number of Records: 107,737;   Date Range: 3/2/05 - 12/18/14
 
SHARE

PRINT THIS DATA

[ ← Previous Day ]
WEATHER ALMANAC - JANUARY 31, 2013
[ Next Day → ]
[ °C ]   °F
Weather ElementAverageHighLow
Temperature47 °F62.1 °F (2:56 pm)30.9 °F (4:56 am)
Dewpoint28.1 °F34 °F (10:56 pm)21 °F (11:56 am)
Humidity55.6 %96 % (4:56 am)21 % (1:56 pm)
Barometer30.23 in30.30 in (11:56 pm)30.18 in (3:56 am)
Wind Speed2.9 mph9.2 mph (1:56 pm)
Weather ElementAverage
Visibility10 mi
Wind DirectionNE (41.7 °)

Weather ElementTotal
Precipitation---
Heating Degree Days18.5 (Base 65)
Averaged from 23 records on January 31, 2013
WEATHER CONDITIONS BREAKOUT
WIND DIRECTION BREAKOUT
WEATHER BY HOUR - JANUARY 31, 2013
[ °C ]   °F
Local TimeTemperatureDewpointHumidityBarometerVisibilityWind DirectionWind SpeedGust SpeedPrecipitationEventsConditions
1:56 AM33.1 °F30.9 °F92 %30.20 in10.0 miCalmClear
2:56 AM33.1 °F30.9 °F92 %30.19 in10.0 miCalmClear
3:56 AM33.1 °F30.0 °F89 %30.18 in10.0 miCalmClear
4:56 AM30.9 °F30.0 °F96 %30.18 in10.0 miCalmClear
5:56 AM30.9 °F28.9 °F92 %30.20 in10.0 miCalmClear
6:56 AM30.9 °F28.9 °F92 %30.21 in10.0 miCalmClear
7:56 AM35.1 °F32.0 °F89 %30.24 in10.0 miCalmClear
8:56 AM46.0 °F28.9 °F51 %30.27 in10.0 miVariable5.8 mphClear
9:56 AM51.1 °F28.0 °F41 %30.28 in10.0 miVariable3.5 mphClear
10:56 AM55.0 °F23.0 °F29 %30.28 in10.0 miVariable5.8 mphClear
11:56 AM57.9 °F21.0 °F24 %30.27 in10.0 miWest (260°)8.1 mphClear
12:56 PM60.1 °F24.1 °F25 %30.23 in10.0 miVariable5.8 mphClear
1:56 PM61.0 °F21.0 °F21 %30.22 in10.0 miWest (260°)9.2 mphClear
2:56 PM62.1 °F21.0 °F21 %30.21 in10.0 miSW (230°)5.8 mphClear
3:56 PM62.1 °F21.0 °F21 %30.20 in10.0 miVariable5.8 mphClear
4:56 PM61.0 °F23.0 °F23 %30.21 in10.0 miVariable5.8 mphClear
5:56 PM53.1 °F28.9 °F40 %30.20 in10.0 miCalmClear
6:56 PM46.9 °F33.1 °F59 %30.22 in10.0 miCalmClear
7:56 PM46.9 °F32.0 °F56 %30.25 in10.0 miCalmClear
8:56 PM48.0 °F30.9 °F52 %30.28 in10.0 miSSW (210°)3.5 mphClear
9:56 PM48.0 °F30.9 °F52 %30.29 in10.0 miVariable3.5 mphClear
10:56 PM46.0 °F34.0 °F63 %30.29 in10.0 miCalmClear
11:56 PM48.0 °F34.0 °F58 %30.30 in10.0 miVariable4.6 mphClear
Hourly data recorded from KAQV, located miles away from Many, Louisiana







STORIES FROM OUR PARTNERS